Simultaneous Nadir Overpasses (SNOs) Predictions

Prediction of SNOs between GOES-17 and METOP-C Satellite Orbit:

Table of predicted SNOs for the next 14.0 days since TLE Epoch: 1/14/2023
Index Date Time (GOES-17) GOES-17 Lat,Lon METOP-C Lat,Lon Distance(km) Time Diff (sec)
1 01/14/2023 18:43:21 -0.00,-137.30 0.27,-138.49 136.40 80
2 01/15/2023 18:25:22 -0.00,-137.28 -0.88,-133.50 431.84 80
3 01/17/2023 06:41:41 0.00,-137.25 -0.19,-138.08 95.29 80
4 01/18/2023 06:23:42 0.00,-137.23 0.95,-133.09 472.22 80
5 01/19/2023 18:39:51 -0.00,-137.21 0.09,-137.64 48.87 80
6 01/22/2023 06:38:11 -0.00,-137.14 0.00,-137.23 10.84 80
7 01/24/2023 18:38:59 0.01,-137.08 -0.08,-136.78 34.93 80
8 01/26/2023 06:55:19 -0.01,-137.03 -0.98,-141.37 493.90 80
9 01/27/2023 06:37:18 -0.02,-137.00 0.13,-136.37 72.81 80
